Location: Village de las Huertas
(35.3014°N, 106.4095°W)
Time: 16:49:46
(UTC+00:00)

Cosmos 2082 Rocket - Pass Details

Date: 29 October 2020
Orbit: 833 x 854 km, 71.0° (Epoch: 24 November)

Event Time Altitude Azimuth Distance (km) Brightness Sun altitude
Exits shadow 12:09:49 24° 265° (W) 1,666 3.1 -15.8°
Maximum altitude 12:11:48 30° 299° (WNW) 1,462 2.9 -15.4°
Drops below altitude 10° 12:16:41 10° 360° (N) 2,449 4.5 -14.4°
Sets 12:19:26 0° 11° (N) 3,389 5.4 -13.9°
